www.pogodaiklimat.ru

Погода и климат >> Архив погоды >> Россия >> Хабаровский край >> Советская Гавань


АРХИВ ПОГОДЫ в Советской Гавани

Время (UTC), дата Ветер
(напр.,м/с)
 
Видим.   Явления Облачность Т
(С)
Тd
(С)
f
(%)
Тe
(С)
Тes
(С)
Комфортность P
(гПа)
Po
(гПа)
Тmin
(С)
Tmax
(С)
R
(мм)
R24
(мм)
S
(см)
21 9.01 ЮЗ 2 50 км ясно -20.0 -23.8 72 -26 -26 1006.4 1003.6 -20.7
00 10.01 З 2 50 км 8/0
[Ac lent Cc]
-20.1 -23.6 74 -26 -25 1006.6 1003.7 -21.9
03 10.01 штиль 0 50 км 10/0
[As op]
-11.1 -18.3 55 -11 -11 1005.1 1002.4
06 10.01 СЗ 4 50 км 10/1 600 м
[Sc Ac lent Ci fib]
-9.1 -18.5 46 -16 -16 1005.5 1002.8
09 10.01 С 2 26 км ясно -12.1 -18.2 60 -17 -17 1008.0 1005.3 -8.9
12 10.01 СЗ 4 26 км ясно -12.2 -20.1 52 -19 -19 1010.2 1007.5
15 10.01 З 4 25 км ясно -12.4 -21.9 45 -20 -20 1012.1 1009.3
18 10.01 З 4 30 км ясно -13.1 -21.8 48 -20 -20 1014.1 1011.3
21 10.01 З 2 30 км ясно -14.0 -22.0 51 -19 -19 1015.5 1012.7 -14.0
00 11.01 З 2 50 км ясно -12.3 -22.0 44 -17 -16 1016.5 1013.7 -14.1
03 11.01 СЗ 2 50 км ясно -8.3 -21.5 34 -12 -10 1015.8 1013.0
06 11.01 СЗ 4 50 км ясно -8.0 -19.7 38 -14 -14 1016.0 1013.3
09 11.01 З 2 30 км ясно -11.4 -17.2 62 -16 -16 1017.2 1014.4 -7.7
12 11.01 З 2 28 км ясно -12.6 -19.8 55 -17 -17 1018.3 1015.5
15 11.01 штиль 0 30 км ясно -13.3 -21.7 49 -13 -13 1019.0 1016.2
18 11.01 З 2 45 км ясно -15.1 -21.1 60 -20 -20 1020.3 1017.5
21 11.01 штиль 0 20 км ясно -17.6 -21.9 69 -18 -18 1021.7 1018.8 -18.4
00 12.01 З 2 50 км ясно -17.7 -21.8 70 -23 -22 1023.2 1020.3 -20.1
03 12.01 С 4 50 км ясно -7.5 -18.8 40 -14 -12 1022.6 1019.8
06 12.01 СВ 2 50 км ясно -8.0 -17.1 48 -12 -12 1023.6 1020.9
09 12.01 штиль 0 50 км ясно -10.5 -16.4 62 -11 -11 1024.9 1022.1 -6.6
12 12.01 штиль 0 50 км 3/0
[Ci fib]
-15.3 -18.4 77 -15 -15 1026.2 1023.3
15 12.01 штиль 0 40 км 10/0
[Ci fib]
-17.7 -20.4 79 -18 -18 1026.1 1023.3
18 12.01 штиль 0 40 км 10/0
[Ci fib]
-18.3 -21.3 77 -18 -18 1026.3 1023.4
21 12.01 штиль 0 50 км 6/0
[Ci fib]
-20.3 -22.6 82 -20 -20 1026.3 1023.4 -20.3
00 13.01 ЮЗ 2 50 км 3/0
[Ci fib]
-19.6 -22.3 79 -25 -24 1027.0 1024.1 -21.5
03 13.01 штиль 0 50 км 3/0
[Ci fib]
-7.9 -18.3 43 -8 -5 1025.1 1022.3
06 13.01 В 2 50 км 10/0
[Cc]
-7.8 -16.4 50 -12 -12 1025.0 1022.2
09 13.01 ЮЗ 2 45 км 3/0
[Ci fib]
-11.4 -16.0 69 -16 -16 1025.1 1022.3 -6.7
12 13.01 Ю 2 45 км 3/0
[Ci fib]
-15.7 -18.9 76 -21 -21 1025.5 1022.6
15 13.01 ЮЗ 4 50 км ясно -16.5 -20.4 72 -25 -25 1025.1 1022.2
18 13.01 ЮЗ 2 50 км ясно -18.4 -21.3 78 -24 -24 1025.1 1022.2
21 13.01 Ю 2 50 км ясно -19.8 -22.4 80 -26 -26 1024.5 1021.6 -19.8
00 14.01 штиль 0 50 км 10/0
[Ci fib]
-18.9 -21.9 77 -19 -18 1024.9 1022.0 -20.4
03 14.01 штиль 0 50 км 4/0
[Ci fib]
-11.4 -17.5 61 -12 -8 1022.6 1019.8
06 14.01 В 2 50 км 6/0
[Ci fib]
-8.7 -13.4 69 -13 -13 1021.8 1019.0
09 14.01 З 2 18 км 10/3 600 м
[Sc Ac As]
-11.4 -13.2 86 -16 -16 1021.6 1018.8 -8.0
12 14.01 З 2 16 км слаб. снег 10/4 600 м
[Sc Ac As Ci fib]
-13.5 -15.3 86 -18 -18 1020.7 1017.9
15 14.01 З 2 13 км слаб. снег 10/5 600 м
[Sc Ac As Ci fib]
-13.8 -15.9 84 -19 -19 1018.7 1015.9
18 14.01 ЮЗ 2 14 км слаб. снег 10/5 600 м
[Sc Ac As]
-13.0 -16.2 77 -18 -18 1017.0 1014.2
21 14.01 З 2 17 км {снег} 10/3 600 м
[Sc Ac As Ci fib]
-13.2 -16.3 77 -18 -18 1015.2 1012.4 -13.8 0.0
00 15.01 ЮЗ 2 10 км {снег} 10/0
[Ac As Ci fib]
-12.6 -17.0 70 -17 -17 1014.2 1011.4 -13.8
03 15.01 СЗ 2 10 км 10/0
[Ci fib]
-7.0 -15.3 52 -11 -9 1010.9 1008.2
06 15.01 СВ 2 10 км 10/0
[As op Cs]
-7.0 -14.8 54 -11 -11 1009.6 1006.9
09 15.01 штиль 0 11 км 10/0
[As op Cs]
-8.6 -13.7 67 -9 -9 1008.1 1005.3 -6.3
12 15.01 С 2 10 км 10/0
[As op Cs]
-9.1 -14.2 66 -13 -13 1006.1 1003.3
15 15.01 С 6 9000 м слаб. снег 10/0
[As op]
-9.3 -14.6 65 -18 -18 1003.4 1000.7
18 15.01 С 10-14
{14}
10 км в посл. час снег 10/0
[As op]
-9.8 -17.8 52 -20 -20 1002.0 999.3
21 15.01 СЗ 10-14
{18}
13 км 10/0
[Ci fib]
-12.6 -23.5 40 -24 -24 1001.4 998.7 -12.6 0.0
00 16.01 З 6-12
{16}
50 км 10/0
[Ac As Cc]
-14.1 -23.8 44 -23 -23 1003.1 1000.3 -14.1
03 16.01 З 10-16
{20}
50 км 4/0
[Ac lent Cc]
-12.2 -24.0 37 -23 -23 1001.6 998.9
06 16.01 З 4
{16}
50 км 10/5 600 м
[Sc Ac trans Cc]
-13.1 -24.8 37 -20 -20 1001.5 998.7
09 16.01 З 4
{10}
30 км 10/5 600 м
[Sc Ac lent]
-14.0 -25.9 36 -22 -22 1000.8 998.0
12 16.01 З 6-10
{12}
26 км 10/3 600 м
[Sc Ac lent Ci fib]
-16.3 -28.0 36 -26 -26 1000.5 997.7
15 16.01 З 6
{12}
29 км 10/0
[Ci fib]
-17.4 -26.1 47 -28 -28 998.5 995.5
18 16.01 З 6
{10}
40 км 6/0
[Ci fib]
-17.9 -27.5 43 -28 -28 996.4 993.6

 

Местоположение метеостанции Советская Гавань (Хабаровский край, Россия): широта 49.00 долгота 140.30 высота над уровнем моря 24 м.

В архиве по умолчанию представлена погода в Советской Гавани за последнюю неделю. Архивные данные за месяц целиком и за предыдущие месяцы, начиная с января 2011 года, Вы можете получить, выбрав интересующий диапазон дат из раскрывающегося списка и нажав кнопку "Ввод!".


*Определитесь, кто Вы:
робот инопланетянин человек

Внимание! Время в таблицах - всемирное. Для получения местного времени необходимо прибавить поправку, которая равна 10 ч.

Смотрите также архив погоды в соседних городах и на ближайших метеорологических станциях:

Погода в Тумнине (Хабаровский край, Россия) (75 км)
Погода в Мопау (Хабаровский край, Россия) (103 км)
Погода в Углегорске (Сахалинская область, Россия) (124 км)
Погода в Солекуль (Хабаровский край, Россия) (169 км)
Погода в Пильво (Сахалинская область, Россия) (175 км)
Погода в Ильинском (Сахалинская область, Россия) (180 км)
Погода в Макарове (Сахалинская область, Россия) (181 км)
Погода в Сегжеме (Хабаровский край, Россия) (203 км)
Погода в Поронайске (Сахалинская область, Россия) (205 км)
Погода в Оноре (Сахалинская область, Россия) (209 км)

Пояснения к столбцам:

Ветер - указаны скорость ветра в м/с - средняя за 10 мин, порывы в срок и между сроками (в фигурных скобках) и направление, откуда дует ветер: С - северный, СВ - северо-восточный, В - восточный, ЮВ - юго-восточный, Ю - южный, ЮЗ - юго-западный, З - западный, СЗ - северо-западный.
Видимость - горизонтальная дальность видимости в метрах или километрах. При видимости от 1 до 10 км при отсутствии осадков обычно наблюдается дымка, при ухудшении видимости до 1 км и менее - туман. В сухую погоду видимость может ухудшаться дымом, пылью или мглою.
Явления - указаны атмосферные явления, наблюдавшиеся в срок или в последний час перед сроком; фигурными скобками обозначены явления, наблюдавшиеся между сроками (за 1-3 часа до срока); квадратными скобками обозначены град или гололедные отложения с указанием их диаметра в мм.
Облачность - указаны через наклонную черту общая и нижняя облачность в баллах и высота нижней границы облаков в метрах; квадратными скобками обозначены формы облаков: Ci - перистые, Cs - перисто-слоистые, Cc - перисто-кучевые, Ac - высококучевые, As - высокослоистые, Sc - слоисто-кучевые, Ns - слоисто-дождевые, Cu - кучевые, Cb - кучево-дождевые. Подробнее классификацию облаков см. в Атласе облаков (PDF).
T - Температура воздуха - температура, измеренная на высоте 2 м над землей.
Td - Температура точки росы - температура, при понижении до которой содержащийся в воздухе водяной пар достигнет насыщения.
f - Относительная влажность воздуха - влажноcть воздуха, измеренная на высоте 2 м над землей.
Te - Эффективная температура - температура, которую ощущает одетый по сезону человек в тени. Характеристика душности погоды. При расчете учитывается влияние влажности воздуха и скорости ветра на теплоощущения человека.
Tes - Эффективная температура на солнце - температура, которую ощущает человек, с поправкой на солнечный нагрев. Характеристика знойности погоды. Зависит от высоты солнца над горизонтом, облачности и скорости ветра. Ночью, в пасмурную погоду, а также при ветре 12 м/с и более поправка равна нулю.
P - Атмосферное давление - приведенное к уровню моря атмосферное давление.
Po - Атмосферное давление - измеренное на уровне метеостанции атмосферное давление.
Tmin - Минимальная температура - минимум температуры воздуха на высоте 2 м над землей.
Tmax - Максимальная температура - максимум температуры воздуха на высоте 2 м над землей.
R - Количество осадков - Количество выпавших осадков за период времени, мм. При наведении курсора мыши на число - период времени, за который выпало указанное количество осадков.
R24 - Количество осадков - Количество выпавших осадков за 24 часа, мм.
S - Снежный покров - Высота снежного покрова, см. При наведении курсора мыши на число - состояние снежного покрова и степень покрытия местности в баллах.